"Time","Temp","Dewpoint","Humidity","Pressure","Direction","Speed","Gust","Precip","PrecipRate"
"00:04:59","65.5","56.1","71.5","29.94","317","2.6","8.4","0.00","0.00"
"00:09:58","65.4","56","71.8","29.94","336","2.1","8.4","0.00","0.00"
"00:14:59","65.2","56","72.3","29.94","348","2.5","8.4","0.00","0.00"
"00:19:59","65","56.1","73","29.94","333","2.3","4.8","0.00","0.00"
"00:24:59","64.9","56","73","29.94","297","1.8","6","0.00","0.00"
"00:29:58","64.7","55.9","73.2","29.94","316","1.7","4.8","0.00","0.00"
"00:34:58","64.5","56","74","29.94","330","2.6","7.2","0.00","0.00"
"00:39:59","64.3","55.8","74.1","29.94","331","2","6","0.00","0.00"
"00:44:58","64.1","55.7","74.2","29.95","323","2.1","6","0.00","0.00"
"00:49:58","63.9","55.8","75","29.95","314","2.3","6","0.00","0.00"
"00:54:57","63.8","55.7","75","29.95","308","3.4","12","0.00","0.00"
"00:59:57","63.7","55.7","75.2","29.95","282","2.1","6","0.00","0.00"
"01:04:59","63.5","55.4","75","29.95","287","2.6","7.2","0.00","0.00"
"01:09:58","63.4","55.4","75.2","29.95","330","2.8","7.2","0.00","0.00"
"01:14:59","63.4","55.4","75.3","29.95","333","2.8","8.4","0.00","0.00"
"01:19:59","63.4","55.5","75.6","29.95","326","2.4","6","0.00","0.00"
"01:24:59","63.3","55.3","75","29.95","322","2.9","8.4","0.00","0.00"
"01:29:58","63.3","55.2","75","29.95","312","2.9","8.1","0.00","0.00"
"01:34:58","63.3","55.1","74.8","29.95","322","2.5","7.2","0.00","0.00"
"01:39:59","63.3","55","74.3","29.95","342","2.9","13.2","0.00","0.00"
"01:44:58","63.3","54.9","74.2","29.95","339","2.4","6","0.00","0.00"
"01:49:58","63.3","54.9","74","29.95","335","3.7","8.4","0.00","0.00"
"01:54:57","63.4","55","74","29.95","318","3.6","13.2","0.00","0.00"
"01:59:56","63.3","54.9","74","29.95","338","3.7","8.4","0.00","0.00"
"02:04:58","63.2","54.8","74","29.95","340","2.6","10.8","0.00","0.00"
"02:09:58","63.2","54.8","74","29.95","320","3.8","10.8","0.00","0.00"
"02:14:59","63.1","54.7","74","29.95","303","2.6","6","0.00","0.00"
"02:19:58","62.9","54.8","74.7","29.95","326","1.1","5.8","0.00","0.00"
"02:24:58","62.8","54.8","75","29.95","355","2.8","10.8","0.00","0.00"
"02:29:57","62.6","54.6","75","29.96","322","1.9","7.2","0.00","0.00"
"02:34:57","62.5","54.5","75","29.96","322","2.1","4.8","0.00","0.00"
"02:39:58","62.4","54.6","75.6","29.96","329","1.8","6","0.00","0.00"
"02:44:58","62.3","54.6","76","29.96","313","1.8","6","0.00","0.00"
"02:49:58","62.2","54.5","76","29.96","320","1.1","3.6","0.00","0.00"
"02:54:57","62","54.5","76.3","29.96","324","1.2","4.8","0.00","0.00"
"02:59:57","61.8","54.5","77","29.96","324","0.9","3.6","0.00","0.00"
"03:04:57","61.6","54.3","77.1","29.96","325","1.4","4.8","0.00","0.00"
"03:09:56","61.4","54.2","77.2","29.96","325","0.8","2.4","0.00","0.00"
"03:14:58","61.3","54.4","78","29.96","325","0.2","2.4","0.00","0.00"
"03:19:57","61.2","54.3","78","29.96","325","0.4","3.6","0.00","0.00"
"03:24:57","61","54.2","78.3","29.96","325","0.4","3.6","0.00","0.00"
"03:29:56","60.8","54.2","78.8","29.97","325","0.8","3.6","0.00","0.00"
"03:34:56","60.7","54.1","79","29.97","326","0.8","4.8","0.00","0.00"
"03:39:57","60.5","54.2","79.6","29.97","326","0.6","3.6","0.00","0.00"
"03:44:57","60.4","54.2","80","29.97","326","0.9","3.6","0.00","0.00"
"03:49:57","60.3","54.1","80","29.97","326","0.6","2.4","0.00","0.00"
"03:54:57","60.2","54","80","29.97","326","0.3","2.4","0.00","0.00"
"03:59:57","60.1","53.9","80","29.97","325","0.8","4.8","0.00","0.00"
"04:04:55","60.1","53.9","80","29.97","325","0.4","3.5","0.00","0.00"
"04:09:59","60","53.8","80.1","29.97","325","0.3","3.6","0.00","0.00"
"04:14:56","59.9","53.9","80.6","29.97","326","0.7","3.6","0.00","0.00"
"04:19:56","59.7","53.9","81","29.97","326","0","1.2","0.00","0.00"
"04:24:56","59.6","53.8","81","29.97","326","0.1","1.2","0.00","0.00"
"04:29:56","59.4","53.7","81.2","29.97","329","0.8","4.8","0.00","0.00"
"04:34:59","59.5","53.7","81","29.97","339","1.3","4.6","0.00","0.00"
"04:39:57","59.5","53.8","81.2","29.97","337","1.4","3.6","0.00","0.00"
"04:44:57","59.6","53.8","81","29.98","333","2.2","6","0.00","0.00"
"04:49:56","59.8","53.8","80.6","29.98","296","2.4","6","0.00","0.00"
"04:54:59","60","53.8","79.9","29.98","324","2.5","7.2","0.00","0.00"
"04:59:59","60.1","53.8","79.4","29.98","338","2.4","6.9","0.00","0.00"
"05:04:33","60.2","53.7","79","29.98","314","1.7","12","0.00","0.00"
"05:09:57","60.3","53.8","79","29.98","286","1.9","11.5","0.00","0.00"
"05:14:58","60.3","53.8","79","29.98","302","2.5","8.4","0.00","0.00"
"05:19:57","60.3","53.8","79","29.98","296","2.3","7.2","0.00","0.00"
"05:24:57","60.2","53.7","79","29.98","308","2.9","6","0.00","0.00"
"05:29:56","60.2","53.7","79","29.99","317","1.6","4.6","0.00","0.00"
"05:34:56","60.2","53.7","79","29.99","283","1.3","6","0.00","0.00"
"05:39:57","60.2","53.7","79","29.99","320","2.1","4.8","0.00","0.00"
"05:41:34","60.1","53.6","79","29.99","311","0.4","3.5","0.00","0.00"
"05:49:57","60","53.5","79","30.00","287","1.1","4.8","0.00","0.00"
"05:54:56","59.9","53.6","79.8","30.00","277","1","3.6","0.00","0.00"
"05:59:56","59.8","53.5","79.7","30.00","284","1.7","4.8","0.00","0.00"
"06:04:59","59.8","53.6","80","30.00","286","0.6","3.6","0.00","0.00"
"06:09:59","59.7","53.5","80","30.00","287","0.5","2.4","0.00","0.00"
"06:14:57","59.5","53.3","80","30.01","287","0","0","0.00","0.00"
"06:19:57","59.3","53.1","80","30.01","287","0","0","0.00","0.00"
"06:24:57","59.1","53.2","80.8","30.01","287","0","0","0.00","0.00"
"06:29:56","58.9","53.2","81.3","30.02","287","0","0","0.00","0.00"
"06:34:56","58.7","53.2","82.2","30.02","287","0","0","0.00","0.00"
"06:39:58","58.4","53.3","82.9","30.02","287","0","0","0.00","0.00"
"06:44:58","58.2","53.1","83","30.02","287","0","0","0.00","0.00"
"06:49:58","57.9","53","83.9","30.02","287","0","0","0.00","0.00"
"06:54:58","57.6","53","84.7","30.02","287","0.4","3.6","0.00","0.00"
"06:59:58","57.3","52.9","85.3","30.02","287","0","0","0.00","0.00"
"07:04:57","57","52.9","86","30.02","287","0","0","0.00","0.00"
"07:09:57","56.8","52.9","86.4","30.02","287","0","0","0.00","0.00"
"07:14:59","56.7","53.1","87.4","30.03","287","0","0","0.00","0.00"
"07:19:59","56.8","53.3","88","30.03","287","0.1","2.4","0.00","0.00"
"07:24:59","57.2","53.5","87.5","30.03","287","0.4","2.4","0.00","0.00"
"07:29:58","58","53.7","85.6","30.04","287","0","1.2","0.00","0.00"
"07:34:57","58.7","54","84.5","30.04","287","0.1","1.2","0.00","0.00"
"07:39:58","59.5","54.3","83.1","30.04","287","0.7","3.6","0.00","0.00"
"07:44:58","60.1","54.6","82","30.04","287","0.4","2.4","0.00","0.00"
"07:49:57","60.9","54.7","80.3","30.04","287","0.7","2.4","0.00","0.00"
"07:54:57","61.2","55","80","30.04","287","0.5","2.4","0.00","0.00"
"07:59:57","61.5","55.1","79.3","30.05","291","1.4","4.8","0.00","0.00"
"08:04:59","61.9","55.3","79","30.05","298","0.6","3.6","0.00","0.00"
"08:09:58","62.3","55.8","79.3","30.05","298","0.5","2.4","0.00","0.00"
"08:14:59","62.7","56","78.5","30.05","318","1","4.8","0.00","0.00"
"08:19:58","63.3","56.3","77.8","30.05","324","0.7","6","0.00","0.00"
"08:24:58","63.9","56.5","77","30.05","325","1.2","7.2","0.00","0.00"
"08:29:57","64.2","56.4","75.6","30.05","348","1.7","6","0.00","0.00"
"08:34:56","64.6","56.5","75.2","30.05","339","1.7","4.8","0.00","0.00"
"08:39:57","64.9","56.6","74.7","30.05","330","0.6","2.4","0.00","0.00"
"08:44:57","65.3","56.8","74","30.06","312","3","8.4","0.00","0.00"
"08:49:56","65.4","56.9","73.8","30.06","318","2.5","10.8","0.00","0.00"
"08:54:56","65.5","56.6","73.1","30.06","304","3","12","0.00","0.00"
"08:59:59","65.6","56.9","73.7","30.06","323","2.2","6","0.00","0.00"
"09:04:57","65.8","57","73.3","30.06","307","3.2","10.8","0.00","0.00"
"09:09:56","65.9","56.7","72.3","30.06","309","4.3","10.8","0.00","0.00"
"09:14:57","66.1","57.2","73.1","30.07","285","3.7","13.2","0.00","0.00"
"09:19:56","66.3","57.2","72.3","30.07","324","4.4","11.5","0.00","0.00"
"09:24:59","66.5","57.4","72.5","30.07","297","4.9","10.8","0.00","0.00"
"09:29:59","66.7","57.4","72","30.07","309","4.5","10.8","0.00","0.00"
"09:34:58","67.1","58","72.7","30.07","338","2.8","6","0.00","0.00"
"09:39:58","67.5","57.7","70.8","30.07","285","4.5","8.4","0.00","0.00"
"09:44:58","67.7","58.2","71.7","30.07","285","3.4","9.6","0.00","0.00"
"09:49:57","68.1","58.3","71.1","30.07","328","4.9","13.2","0.00","0.00"
"09:54:56","68.2","58","70","30.07","328","4.2","12.7","0.00","0.00"
"09:59:59","68.4","58.1","69.7","30.07","319","3.8","10.4","0.00","0.00"
"10:04:58","68.7","58.7","70.5","30.07","308","3.1","7.2","0.00","0.00"
"10:09:57","69.2","59.2","70.5","30.07","279","2.4","6.9","0.00","0.00"
"10:14:58","69.9","59.9","70.7","30.08","317","2.4","7.2","0.00","0.00"
"10:19:57","70.4","59.5","68.6","30.08","315","4.1","8.4","0.00","0.00"
"10:24:57","70.5","59.3","67.8","30.08","331","4.2","13.2","0.00","0.00"
"10:29:56","70.7","59.8","68.6","30.08","308","3.4","8.4","0.00","0.00"
"10:34:56","70.9","60","68.6","30.08","346","3.2","10.8","0.00","0.00"
"10:39:56","71","59.7","67.5","30.08","325","3.2","7.2","0.00","0.00"
"10:44:56","71","60","68.1","30.08","312","3.2","10.8","0.00","0.00"
"10:49:59","71.1","59.6","67","30.08","340","5.5","12","0.00","0.00"
"10:54:38","71.1","59.8","67.4","30.08","336","4.5","10.4","0.00","0.00"
"10:59:57","71.5","60","67","30.08","340","2.9","12","0.00","0.00"
"11:04:59","71.8","60.7","68.1","30.08","314","2.8","10.8","0.00","0.00"
"11:09:58","72.3","60.9","67.4","30.08","274","2.9","8.4","0.00","0.00"
"11:14:59","72.6","60.9","66.7","30.08","324","3.1","10.8","0.00","0.00"
"11:19:58","72.7","60.9","66.5","30.08","340","4.4","13.2","0.00","0.00"
"11:24:57","72.6","60.5","65.9","30.08","337","5.8","12.7","0.00","0.00"
"11:29:57","72.4","60.8","67","30.09","238","2.4","11.5","0.00","0.00"
"11:34:36","72.9","61.6","67.8","30.09","332","4.1","12","0.00","0.00"
"11:39:57","72.7","60.4","65.5","30.09","317","6.1","15.6","0.00","0.00"
"11:44:57","72.8","61.2","67.1","30.09","343","2.8","15","0.00","0.00"
"11:49:56","73.1","61.5","67.1","30.09","288","4","9.6","0.00","0.00"
"11:54:59","73.3","61.6","66.8","30.09","331","4.9","12","0.00","0.00"
"11:59:59","73.6","61.7","66.2","30.09","346","2.7","9.6","0.00","0.00"
"12:04:58","74.1","62.5","67.2","30.09","332","3.8","12","0.00","0.00"
"12:09:57","74.3","62.8","67.4","30.09","337","0.3","4.8","0.00","0.00"
"12:14:58","74.8","62.2","65","30.09","316","1.1","7.2","0.00","0.00"
"12:19:57","74.8","61.8","64.2","30.08","313","4.7","13.2","0.00","0.00"
"12:24:56","74.7","62","64.7","30.08","293","3.9","12","0.00","0.00"
"12:29:59","75","61.6","63.2","30.08","321","5.1","12","0.00","0.00"
"12:34:59","75.3","61.2","61.5","30.08","323","4.6","12","0.00","0.00"
"12:39:59","75.5","61.3","61.5","30.08","325","5.5","14.4","0.00","0.00"
"12:44:59","75.4","61.3","61.6","30.08","332","6.3","15","0.00","0.00"
"12:49:58","75.3","61.1","61.3","30.08","341","5.9","13.2","0.00","0.00"
"12:54:57","75.6","61.8","62.2","30.08","323","4.1","13.2","0.00","0.00"
"12:59:57","76.1","61.5","60.8","30.08","334","5.7","15.6","0.00","0.00"
"13:04:59","76.2","61.5","60.5","30.08","310","5.2","16.1","0.00","0.00"
"13:09:57","76.3","61.8","61","30.08","292","3.5","8.4","0.00","0.00"
"13:14:59","76.5","61.9","60.8","30.08","333","7.4","17.3","0.00","0.00"
"13:19:58","76.5","61.6","60.1","30.08","339","5.2","12","0.00","0.00"
"13:24:57","76.4","61.4","59.6","30.08","300","5.4","15.6","0.00","0.00"
"13:29:56","76.6","62.6","62","30.08","243","3.8","8.4","0.00","0.00"
"13:34:56","77.2","62.9","61.5","30.08","280","2.3","6.9","0.00","0.00"
"13:39:56","77.4","63.1","61.5","30.08","339","3.4","10.8","0.00","0.00"
"13:44:59","77.5","62.6","60.3","30.08","283","4","12","0.00","0.00"
"13:49:59","77.3","62","59.4","30.07","262","4.7","12","0.00","0.00"
"13:54:58","77.4","61.8","58.6","30.07","266","3.5","8.4","0.00","0.00"
"13:59:29","77.8","62.2","58.8","30.07","288","4.9","16.1","0.00","0.00"
"14:04:56","77.9","62.5","59.2","30.06","285","5.2","17.3","0.00","0.00"
"14:09:59","78.3","63.2","59.8","30.06","253","4.1","12","0.00","0.00"
"14:14:56","78.4","61.8","56.9","30.06","325","5.1","13.2","0.00","0.00"
"14:19:59","78.1","61.6","57","30.06","253","4.6","12","0.00","0.00"
"14:24:58","78.3","63.1","59.7","30.06","290","3.3","8.4","0.00","0.00"
"14:29:57","78.1","61.9","57.5","30.06","313","5.2","11.5","0.00","0.00"
"14:34:56","77.4","61.8","58.6","30.06","295","4.8","16.8","0.00","0.00"
"14:39:57","77.3","62","59.3","30.06","310","4.5","15.6","0.00","0.00"
"14:44:56","77.6","61.6","58","30.06","306","4.5","16.1","0.00","0.00"
"14:49:56","77.9","61.6","57.5","30.06","297","3.7","7.2","0.00","0.00"
"14:54:59","77.7","61.9","58.5","30.06","286","3.8","13.2","0.00","0.00"
"14:59:58","77.5","61.2","57.3","30.06","309","5.3","13.2","0.00","0.00"
"15:04:57","77.5","61.3","57.5","30.06","338","4.6","10.8","0.00","0.00"
"15:09:56","77.7","61.4","57.3","30.06","318","4","9.6","0.00","0.00"
"15:14:57","78","62","58","30.06","308","3.9","13.2","0.00","0.00"
"15:19:56","78.2","61.2","56.2","30.05","288","4.3","12.7","0.00","0.00"
"15:24:59","78.4","62.9","59","30.05","327","3","8.4","0.00","0.00"
"15:29:59","78.6","62.5","57.7","30.05","343","4.4","10.8","0.00","0.00"
"15:34:59","78.8","62","56.4","30.05","327","4.4","13.2","0.00","0.00"
"15:39:57","78.9","61.7","55.7","30.05","328","4.8","12.7","0.00","0.00"
"15:44:57","78.8","62.6","57.4","30.05","335","1.8","6","0.00","0.00"
"15:49:58","78.8","62","56.4","30.05","329","3.8","10.8","0.00","0.00"
"15:54:57","78.7","61.9","56.2","30.05","332","4.9","13.2","0.00","0.00"
"15:59:58","78.9","62.7","57.7","30.05","260","3.8","12.7","0.00","0.00"
"16:04:58","79.1","61.9","55.7","30.04","329","3.9","10.8","0.00","0.00"
"16:09:58","78.9","61.8","55.8","30.04","317","4.4","12","0.00","0.00"
"16:14:56","79","61.7","55.5","30.04","307","3.8","10.4","0.00","0.00"
"16:19:57","78.8","61.2","54.9","30.04","310","3.9","12","0.00","0.00"
"16:24:57","78.8","62.1","56.6","30.04","242","3.2","8.4","0.00","0.00"
"16:29:57","78.8","61.9","56.2","30.04","261","2.9","8.4","0.00","0.00"
"16:34:57","78.9","62.2","56.7","30.04","275","3.7","8.4","0.00","0.00"
"16:39:56","79","62.6","57.1","30.04","309","3.1","8.4","0.00","0.00"
"16:44:57","79.4","62.5","56.5","30.04","330","2.4","6","0.00","0.00"
"16:49:58","79.8","62.5","55.7","30.04","335","2.6","8.4","0.00","0.00"
"16:54:59","79.9","62.2","55","30.04","339","4.5","16.8","0.00","0.00"
"16:59:59","79.4","62","55.5","30.04","327","4.7","17.3","0.00","0.00"
"17:04:59","79.3","62.1","55.8","30.04","346","3.6","12","0.00","0.00"
"17:09:59","79.4","62.2","55.8","30.04","294","3.7","10.8","0.00","0.00"
"17:14:58","79.5","63.1","57.4","30.05","291","2.4","6.9","0.00","0.00"
"17:19:59","79.6","62.9","56.9","30.05","334","3","7.2","0.00","0.00"
"17:24:19","79.9","63.2","56.9","30.05","317","2.7","7.2","0.00","0.00"
"17:29:55","79.5","62.4","55.9","30.05","333","4.7","10.8","0.00","0.00"
"17:34:56","79.1","62.8","57.5","30.05","337","3.7","10.8","0.00","0.00"
"17:39:57","79","63","57.8","30.05","320","2.5","6","0.00","0.00"
"17:44:57","78.6","62.1","57","30.05","327","3.4","8.4","0.00","0.00"
"17:49:56","78.4","62.5","58.1","30.05","345","2.4","7.2","0.00","0.00"
"17:54:59","78.4","62.1","57.5","30.05","334","4.9","12","0.00","0.00"
"17:59:59","78","62.3","58.6","30.05","336","3","11.5","0.00","0.00"
"18:04:57","77.7","62.4","59.4","30.05","332","2.9","6","0.00","0.00"
"18:09:56","77.2","62.6","60.8","30.05","333","2.3","7.2","0.00","0.00"
"18:14:57","76.8","62.3","61","30.05","323","2.8","7.2","0.00","0.00"
"18:19:57","76.4","62.6","62.3","30.05","327","1.3","4.8","0.00","0.00"
"18:24:56","76.1","62.5","62.8","30.05","329","2.3","4.8","0.00","0.00"
"18:29:59","75.8","62.3","63","30.05","329","1.8","4.8","0.00","0.00"
"18:34:59","75.6","62.5","63.8","30.05","328","1.5","4.8","0.00","0.00"
"18:39:56","75.4","62.6","64.4","30.05","332","1.4","4.8","0.00","0.00"
"18:44:59","75.2","62.5","64.8","30.05","334","1.3","4.8","0.00","0.00"
"18:49:59","74.9","62.6","65.5","30.05","335","0.8","2.4","0.00","0.00"
"18:54:59","74.7","62.6","66","30.05","335","0.5","2.4","0.00","0.00"
"18:59:59","74.5","62.5","66.3","30.05","335","0.1","2.4","0.00","0.00"
"19:04:58","74.2","62.7","67.3","30.05","335","0.4","2.4","0.00","0.00"
"19:09:57","73.8","62.9","68.7","30.05","335","0.3","2.3","0.00","0.00"
"19:14:59","73.2","63.3","71.1","30.05","335","0","1.2","0.00","0.00"
"19:19:59","72.6","63.5","73.1","30.05","335","0","0","0.00","0.00"
"19:24:59","71.8","63.1","74","30.05","335","0","1.2","0.00","0.00"
"19:29:56","71.4","62.9","74.5","30.06","335","0","1.2","0.00","0.00"
"19:34:56","71.1","62.8","75.1","30.06","335","0","0","0.00","0.00"
"19:39:58","70.7","62.9","76.4","30.06","335","0","0","0.00","0.00"
"19:44:42","70.3","63","77.7","30.06","335","0","0","0.00","0.00"
"19:49:58","69.6","62.9","79","30.06","335","0","0","0.00","0.00"
"19:54:58","69.1","62.8","80.4","30.06","335","0","0","0.00","0.00"
"19:59:58","68.5","62.5","81.3","30.07","335","0","0","0.00","0.00"
"20:04:57","68.1","62.5","82.3","30.07","335","0","0","0.00","0.00"
"20:09:57","67.7","62.3","83.1","30.07","335","0","0","0.00","0.00"
"20:14:59","67.3","62.4","84.3","30.07","335","0","0","0.00","0.00"
"20:19:59","67.1","62.5","85.2","30.07","335","0","0","0.00","0.00"
"20:24:59","66.9","62.6","86","30.07","335","0","0","0.00","0.00"
"20:29:59","66.7","62.4","86","30.08","335","0","0","0.00","0.00"
"20:34:59","66.4","62.1","86","30.08","335","0","0","0.00","0.00"
"20:39:56","66.1","62","86.6","30.08","335","0","0","0.00","0.00"
"20:44:57","65.9","61.9","87","30.08","335","0","0","0.00","0.00"
"20:49:57","65.6","61.9","87.7","30.08","335","0","0","0.00","0.00"
"20:54:57","65.4","62","88.7","30.08","335","0","0","0.00","0.00"
"20:59:57","65.2","61.9","89","30.09","335","0","0","0.00","0.00"
"21:04:52","65","61.7","89","30.09","335","0","0","0.00","0.00"
"21:09:59","64.8","61.8","90","30.09","335","0","0","0.00","0.00"
"21:14:57","64.6","61.6","90","30.10","335","0","0","0.00","0.00"
"21:19:57","64.4","61.5","90.1","30.10","335","0","0","0.00","0.00"
"21:24:58","64.4","61.7","91","30.10","335","0","0","0.00","0.00"
"21:29:57","64.3","61.6","91","30.11","335","0","0","0.00","0.00"
"21:34:57","64.2","61.5","91","30.11","335","0","0","0.00","0.00"
"21:39:59","64.2","61.5","91","30.11","335","0","0","0.00","0.00"
"21:44:59","64.1","61.4","91","30.11","335","0","0","0.00","0.00"
"21:49:59","64","61.3","91","30.11","335","0","0","0.00","0.00"
"21:54:59","63.7","61","91","30.11","335","0","0","0.00","0.00"
"21:59:59","63.6","60.9","91.2","30.12","335","0","0","0.00","0.00"
"22:04:58","63.4","60.9","91.9","30.12","335","0","0","0.00","0.00"
"22:09:57","63.3","61","92.4","30.12","335","0.4","2.4","0.00","0.00"
"22:14:59","63.3","61.2","93","30.12","335","0.6","2.3","0.00","0.00"
"22:19:56","63.3","61.2","93","30.11","335","0","0","0.00","0.00"
"22:24:57","63.2","61.1","93","30.11","335","0","0","0.00","0.00"
"22:29:56","63.1","60.7","92.2","30.12","335","0","0","0.00","0.00"
"22:34:56","62.9","60.5","92","30.12","335","0","0","0.00","0.00"
"22:39:58","62.7","60.4","92.2","30.12","335","0","0","0.00","0.00"
"22:44:58","62.6","60.4","92.9","30.13","335","0","0","0.00","0.00"
"22:49:58","62.5","60.4","93","30.13","335","0","0","0.00","0.00"
"22:54:58","62.4","60.3","93","30.13","335","0","0","0.00","0.00"
"22:59:57","62.3","60.2","93","30.13","335","0","0","0.00","0.00"
"23:04:57","62.2","60.2","93","30.13","335","0","0","0.00","0.00"
"23:09:56","62.2","60.4","93.7","30.13","335","0","0","0.00","0.00"
"23:14:58","62.1","60.4","94","30.13","335","0","0","0.00","0.00"
"23:19:58","62","60.3","94","30.13","335","0","0","0.00","0.00"
"23:24:59","61.9","60.2","94","30.13","335","0","0","0.00","0.00"
"23:29:58","61.9","60.2","94","30.13","335","0","1.2","0.00","0.00"
"23:34:58","62","60.3","94","30.13","335","0","0","0.00","0.00"
"23:39:56","62","60.3","94","30.13","335","0","0","0.00","0.00"
"23:41:57","62","60.3","94","30.13","335","0","0","0.00","0.00"
